| time (UTC) | temp C | wind direction | speed KPH | gust KPH | rain 1hr cm | rain 24hr cm | rain mn cm | humidity % | barometer mb |
| 20260902161828 | 22 | 346 | 8.0 | 11.3 | 0.00 | 0.00 | 0.00 | 50 | 973.1 |
| 20260902161418 | 22 | 346 | 4.8 | 8.0 | 0.00 | 0.00 | 0.00 | 50 | 973.2 |
| 20260902161013 | 22 | 346 | 9.7 | 20.9 | 0.00 | 0.00 | 0.00 | 50 | 973.1 |
| 20260902160518 | 22 | 346 | 9.7 | 14.5 | 0.00 | 0.00 | 0.00 | 50 | 973.3 |
| 20260902160053 | 22 | 346 | 8.0 | 17.7 | 0.00 | 0.00 | 0.00 | 50 | 973.5 |
| 20260902155633 | 22 | 356 | 3.2 | 14.5 | 0.00 | 0.00 | 0.00 | 50 | 973.2 |
| 20260902155153 | 22 | 356 | 3.2 | 11.3 | 0.00 | 0.00 | 0.00 | 50 | 973.2 |
| 20260902154738 | 22 | 355 | 6.4 | 11.3 | 0.00 | 0.00 | 0.00 | 50 | 973.1 |
| 20260902154313 | 22 | 268 | 8.0 | 8.0 | 0.00 | 0.00 | 0.00 | 50 | 973.2 |
| 20260902153815 | 22 | 288 | 8.0 | 11.3 | 0.00 | 0.00 | 0.00 | 50 | 973.4 |
| 20260902153413 | 22 | 288 | 8.0 | 11.3 | 0.00 | 0.00 | 0.00 | 50 | 973.2 |
| 20260902152953 | 22 | 288 | 8.0 | 8.0 | 0.00 | 0.00 | 0.00 | 50 | 973.2 |
| 20260902152515 | 22 | 264 | 8.0 | 11.3 | 0.00 | 0.00 | 0.00 | 50 | 973.3 |
| 20260902152103 | 22 | 264 | 8.0 | 4.8 | 0.00 | 0.00 | 0.00 | 45 | 973.2 |
| 20260902151633 | 22 | 269 | 6.4 | 11.3 | 0.00 | 0.00 | 0.00 | 45 | 973.1 |
| 20260902151203 | 22 | 345 | 8.0 | 14.5 | 0.00 | 0.00 | 0.00 | 45 | 973.5 |
| 20260902150715 | 22 | 107 | 1.6 | 14.5 | 0.00 | 0.00 | 0.00 | 45 | 973.3 |
| 20260902150238 | 23 | 219 | 1.6 | 20.9 | 0.00 | 0.00 | 0.00 | 45 | 973.2 |
| 20260902145805 | 23 | 334 | 11.3 | 14.5 | 0.00 | 0.00 | 0.00 | 45 | 973.2 |
| 20260902145345 | 23 | 228 | 6.4 | 17.7 | 0.00 | 0.00 | 0.00 | 45 | 973.3 |
| 20260902144928 | 23 | 313 | 6.4 | 22.5 | 0.00 | 0.00 | 0.00 | 45 | 973.4 |
| 20260902144443 | 23 | 276 | 6.4 | 14.5 | 0.00 | 0.00 | 0.00 | 45 | 973.4 |
| 20260902144018 | 23 | 276 | 3.2 | 14.5 | 0.00 | 0.00 | 0.00 | 47 | 973.5 |
| 20260902143608 | 22 | 357 | 6.4 | 17.7 | 0.00 | 0.00 | 0.00 | 50 | 973.2 |
| 20260902143138 | 22 | 135 | 6.4 | 8.0 | 0.00 | 0.00 | 0.00 | 50 | 973.3 |
| 20260902142723 | 23 | 135 | 1.6 | 17.7 | 0.00 | 0.00 | 0.00 | 50 | 973.2 |
| 20260902142245 | 22 | 305 | 8.0 | 17.7 | 0.00 | 0.00 | 0.00 | 50 | 973.5 |
| 20260902141827 | 21 | 41 | 9.7 | 17.7 | 0.00 | 0.00 | 0.00 | 50 | 973.3 |
| 20260902141413 | 21 | 332 | 9.7 | 17.7 | 0.00 | 0.00 | 0.00 | 50 | 973.6 |
| 20260902140934 | 21 | 332 | 8.0 | 17.7 | 0.00 | 0.00 | 0.00 | 50 | 973.6 |
| 20260902140508 | 22 | 234 | 9.7 | 20.9 | 0.00 | 0.00 | 0.00 | 50 | 973.6 |
| 20260902140043 | 22 | 300 | 9.7 | 20.9 | 0.00 | 0.00 | 0.00 | 50 | 973.5 |
| 20260902135615 | 21 | 10 | 9.7 | 17.7 | 0.00 | 0.00 | 0.00 | 50 | 973.7 |
| 20260902135133 | 22 | 2 | 11.3 | 17.7 | 0.00 | 0.00 | 0.00 | 50 | 973.6 |
| 20260902134708 | 22 | 2 | 1.6 | 17.7 | 0.00 | 0.00 | 0.00 | 50 | 973.5 |
| 20260902134243 | 22 | 317 | 1.6 | 17.7 | 0.00 | 0.00 | 0.00 | 50 | 973.4 |
| 20260902133815 | 22 | 230 | 12.9 | 8.0 | 0.00 | 0.00 | 0.00 | 50 | 973.7 |
| 20260902133403 | 22 | 230 | 3.2 | 8.0 | 0.00 | 0.00 | 0.00 | 50 | 973.7 |
| 20260902132933 | 22 | 165 | 8.0 | 8.0 | 0.00 | 0.00 | 0.00 | 50 | 973.6 |
| 20260902132453 | 22 | 118 | 6.4 | 11.3 | 0.00 | 0.00 | 0.00 | 48 | 973.7 |
| 20260902132018 | 22 | 312 | 0.0 | 17.7 | 0.00 | 0.00 | 0.00 | 48 | 973.9 |
| 20260902131543 | 22 | 290 | 3.2 | 17.7 | 0.00 | 0.00 | 0.00 | 48 | 973.9 |
| 20260902131138 | 22 | 290 | 9.7 | 17.7 | 0.00 | 0.00 | 0.00 | 48 | 973.8 |
| 20260902130703 | 22 | 316 | 9.7 | 11.3 | 0.00 | 0.00 | 0.00 | 48 | 973.9 |
| 20260902130218 | 22 | 232 | 9.7 | 17.7 | 0.00 | 0.00 | 0.00 | 48 | 973.8 |
| 20260902125803 | 22 | 318 | 6.4 | 17.7 | 0.00 | 0.00 | 0.00 | 46 | 973.9 |
| 20260902125333 | 22 | 318 | 6.4 | 14.5 | 0.00 | 0.00 | 0.00 | 46 | 973.8 |
| 20260902124913 | 22 | 318 | 6.4 | 14.5 | 0.00 | 0.00 | 0.00 | 46 | 973.9 |
| 20260902124425 | 22 | 282 | 9.7 | 8.0 | 0.00 | 0.00 | 0.00 | 46 | 973.8 |
| 20260902123953 | 22 | 282 | 9.7 | 17.7 | 0.00 | 0.00 | 0.00 | 48 | 973.9 |
| 20260902123528 | 21 | 133 | 9.7 | 8.0 | 0.00 | 0.00 | 0.00 | 48 | 973.8 |
| 20260902123103 | 21 | 133 | 14.5 | 8.0 | 0.00 | 0.00 | 0.00 | 48 | 973.8 |
| 20260902122623 | 21 | 155 | 8.0 | 8.0 | 0.00 | 0.00 | 0.00 | 50 | 973.9 |
| 20260902122143 | 21 | 328 | 11.3 | 8.0 | 0.00 | 0.00 | 0.00 | 47 | 974.2 |
| 20260902121648 | 21 | 117 | 11.3 | 8.0 | 0.00 | 0.00 | 0.00 | 47 | 974.2 |
| 20260902121215 | 22 | 95 | 3.2 | 14.5 | 0.00 | 0.00 | 0.00 | 47 | 974.0 |
| 20260902120743 | 23 | 148 | 3.2 | 11.3 | 0.00 | 0.00 | 0.00 | 47 | 974.1 |
| 20260902120313 | 22 | 148 | 8.0 | 11.3 | 0.00 | 0.00 | 0.00 | 47 | 974.3 |
| 20260902115843 | 22 | 148 | 6.4 | 11.3 | 0.00 | 0.00 | 0.00 | 49 | 974.2 |
| 20260902115423 | 22 | 340 | 8.0 | 35.4 | 0.00 | 0.00 | 0.00 | 48 | 974.3 |
| 20260902115013 | 22 | 259 | 1.6 | 35.4 | 0.00 | 0.00 | 0.00 | 48 | 974.3 |
| 20260902114523 | 22 | 136 | 12.9 | 20.9 | 0.00 | 0.00 | 0.00 | 48 | 974.4 |
| 20260902114055 | 22 | 143 | 12.9 | 20.9 | 0.00 | 0.00 | 0.00 | 48 | 974.4 |
| 20260902113633 | 22 | 121 | 6.4 | 17.7 | 0.00 | 0.00 | 0.00 | 48 | 974.6 |
| 20260902113153 | 22 | 121 | 6.4 | 14.5 | 0.00 | 0.00 | 0.00 | 49 | 974.5 |
| 20260902112713 | 22 | 271 | 11.3 | 14.5 | 0.00 | 0.00 | 0.00 | 48 | 974.8 |
| 20260902112247 | 22 | 200 | 6.4 | 20.9 | 0.00 | 0.00 | 0.00 | 49 | 974.8 |
| 20260902111823 | 21 | 150 | 6.4 | 8.0 | 0.00 | 0.00 | 0.00 | 51 | 974.6 |
| 20260902111358 | 21 | 162 | 6.4 | 11.3 | 0.00 | 0.00 | 0.00 | 51 | 974.5 |
| 20260902110908 | 21 | 260 | 6.4 | 29.0 | 0.00 | 0.00 | 0.00 | 51 | 974.5 |
| 20260902110453 | 21 | 229 | 6.4 | 29.0 | 0.00 | 0.00 | 0.00 | 51 | 974.5 |
| 20260902110018 | 21 | 126 | 6.4 | 20.9 | 0.00 | 0.00 | 0.00 | 49 | 974.7 |
| 20260902105555 | 21 | 126 | 6.4 | 17.7 | 0.00 | 0.00 | 0.00 | 49 | 974.6 |
| 20260902105128 | 21 | 126 | 8.0 | 22.5 | 0.00 | 0.00 | 0.00 | 49 | 974.9 |
| 20260902104708 | 22 | 104 | 12.9 | 8.0 | 0.00 | 0.00 | 0.00 | 54 | 974.9 |
| 20260902104223 | 21 | 104 | 14.5 | 35.4 | 0.00 | 0.00 | 0.00 | 54 | 974.8 |
| 20260902103738 | 21 | 344 | 9.7 | 22.5 | 0.00 | 0.00 | 0.00 | 54 | 975.0 |
| 20260902103248 | 21 | 165 | 9.7 | 14.5 | 0.00 | 0.00 | 0.00 | 54 | 975.0 |
| 20260902102808 | 20 | 165 | 9.7 | 14.5 | 0.00 | 0.00 | 0.00 | 54 | 975.1 |
| 20260902102338 | 20 | 209 | 9.7 | 14.5 | 0.00 | 0.00 | 0.00 | 54 | 975.1 |
| 20260902101928 | 20 | 167 | 9.7 | 17.7 | 0.00 | 0.00 | 0.00 | 54 | 974.9 |
| 20260902101522 | 21 | 167 | 9.7 | 17.7 | 0.00 | 0.00 | 0.00 | 54 | 974.8 |
| 20260902101053 | 21 | 167 | 3.2 | 8.0 | 0.00 | 0.00 | 0.00 | 55 | 975.0 |
| 20260902100558 | 20 | 196 | 3.2 | 11.3 | 0.00 | 0.00 | 0.00 | 55 | 974.9 |
| 20260902100148 | 20 | 294 | 3.2 | 20.9 | 0.00 | 0.00 | 0.00 | 57 | 975.1 |
| 20260902095743 | 20 | 294 | 16.1 | 20.9 | 0.00 | 0.00 | 0.00 | 57 | 975.1 |
| 20260902095323 | 20 | 121 | 8.0 | 4.8 | 0.00 | 0.00 | 0.00 | 57 | 975.1 |
| 20260902094853 | 20 | 177 | 8.0 | 4.8 | 0.00 | 0.00 | 0.00 | 57 | 975.1 |
| 20260902094428 | 20 | 208 | 1.6 | 8.0 | 0.00 | 0.00 | 0.00 | 57 | 975.1 |
| 20260902094013 | 20 | 274 | 8.0 | 17.7 | 0.00 | 0.00 | 0.00 | 57 | 974.8 |
| 20260902093558 | 20 | 358 | 6.4 | 8.0 | 0.00 | 0.00 | 0.00 | 57 | 975.0 |
| 20260902093058 | 20 | 307 | 4.8 | 8.0 | 0.00 | 0.00 | 0.00 | 57 | 974.9 |
| 20260902092615 | 20 | 307 | 3.2 | 8.0 | 0.00 | 0.00 | 0.00 | 59 | 974.9 |
| 20260902092138 | 18 | 187 | 3.2 | 8.0 | 0.00 | 0.00 | 0.00 | 59 | 975.1 |
| 20260902091723 | 18 | 98 | 1.6 | 4.8 | 0.00 | 0.00 | 0.00 | 59 | 975.0 |
| 20260902091259 | 18 | 98 | 3.2 | 4.8 | 0.00 | 0.00 | 0.00 | 59 | 975.1 |
| 20260902090823 | 18 | 98 | 3.2 | 8.0 | 0.00 | 0.00 | 0.00 | 58 | 975.1 |
| 20260902090347 | 18 | 78 | 4.8 | 14.5 | 0.00 | 0.00 | 0.00 | 59 | 975.2 |
| 20260902085938 | 19 | 101 | 4.8 | 1.6 | 0.00 | 0.00 | 0.00 | 60 | 975.0 |
| 20260902085453 | 18 | 29 | 1.6 | 1.6 | 0.00 | 0.00 | 0.00 | 60 | 975.2 |
| 20260902085023 | 18 | 113 | 8.0 | 1.6 | 0.00 | 0.00 | 0.00 | 60 | 975.1 |
| 20260902084538 | 18 | 114 | 3.2 | 4.8 | 0.00 | 0.00 | 0.00 | 64 | 975.1 |
| 20260902084118 | 19 | 115 | 1.6 | 8.0 | 0.00 | 0.00 | 0.00 | 64 | 975.2 |
| 20260902083643 | 19 | 111 | 1.6 | 4.8 | 0.00 | 0.00 | 0.00 | 64 | 975.2 |
| 20260902083203 | 19 | 124 | 0.0 | 4.8 | 0.00 | 0.00 | 0.00 | 64 | 975.1 |
| 20260902082748 | 18 | 166 | 1.6 | 1.6 | 0.00 | 0.00 | 0.00 | 70 | 975.0 |
| 20260902082313 | 18 | 104 | 0.0 | 1.6 | 0.00 | 0.00 | 0.00 | 70 | 975.1 |
| 20260902081846 | 17 | 104 | 0.0 | 1.6 | 0.00 | 0.00 | 0.00 | 70 | 975.2 |
| 20260902081413 | 17 | 104 | 1.6 | 4.8 | 0.00 | 0.00 | 0.00 | 70 | 975.2 |
| 20260902080953 | 17 | 104 | 1.6 | 0.0 | 0.00 | 0.00 | 0.00 | 70 | 975.2 |
| 20260902080508 | 17 | 104 | 1.6 | 4.8 | 0.00 | 0.00 | 0.00 | 70 | 975.4 |
| 20260902080055 | 17 | 104 | 3.2 | 4.8 | 0.00 | 0.00 | 0.00 | 70 | 975.2 |
| 20260902075628 | 17 | 104 | 3.2 | 4.8 | 0.00 | 0.00 | 0.00 | 70 | 975.2 |
| 20260902075148 | 16 | 104 | 0.0 | 1.6 | 0.00 | 0.00 | 0.00 | 70 | 975.2 |
| 20260902074713 | 16 | 104 | 0.0 | 1.6 | 0.00 | 0.00 | 0.00 | 70 | 975.2 |
| 20260902074303 | 15 | 104 | 1.6 | 1.6 | 0.00 | 0.00 | 0.00 | 70 | 975.4 |
| 20260902073828 | 15 | 104 | 1.6 | 1.6 | 0.00 | 0.00 | 0.00 | 74 | 975.5 |
| 20260902073418 | 16 | 104 | 1.6 | 1.6 | 0.00 | 0.00 | 0.00 | 74 | 975.2 |
| 20260902072933 | 16 | 104 | 1.6 | 1.6 | 0.00 | 0.00 | 0.00 | 74 | 975.0 |
| 20260902072523 | 15 | 104 | 0.0 | 4.8 | 0.00 | 0.00 | 0.00 | 74 | 975.1 |
| 20260902072115 | 15 | 104 | 0.0 | 0.0 | 0.00 | 0.00 | 0.00 | 77 | 974.9 |
| 20260902071633 | 15 | 92 | 1.6 | 0.0 | 0.00 | 0.00 | 0.00 | 79 | 975.1 |
| 20260902071203 | 15 | 92 | 0.0 | 1.6 | 0.00 | 0.00 | 0.00 | 79 | 975.3 |
| 20260902070702 | 15 | 92 | 0.0 | 1.6 | 0.00 | 0.00 | 0.00 | 79 | 975.0 |
| 20260902070228 | 15 | 92 | 0.0 | 1.6 | 0.00 | 0.00 | 0.00 | 79 | 974.8 |
| 20260902065828 | 15 | 92 | 1.6 | 1.6 | 0.00 | 0.00 | 0.00 | 79 | 975.0 |
| 20260902065403 | 15 | 92 | 0.0 | 0.0 | 0.00 | 0.00 | 0.00 | 79 | 974.9 |
| 20260902064948 | 14 | 92 | 0.0 | 0.0 | 0.00 | 0.00 | 0.00 | 79 | 975.0 |
| 20260902064518 | 13 | 92 | 0.0 | 0.0 | 0.00 | 0.00 | 0.00 | 79 | 974.9 |
| 20260902064048 | 13 | 92 | 0.0 | 0.0 | 0.00 | 0.00 | 0.00 | 79 | 974.9 |
| 20260902063623 | 13 | 92 | 0.0 | 1.6 | 0.00 | 0.00 | 0.00 | 79 | 975.0 |
| 20260902063143 | 13 | 92 | 0.0 | 1.6 | 0.00 | 0.00 | 0.00 | 79 | 975.1 |
| 20260902062718 | 13 | 46 | 0.0 | 1.6 | 0.00 | 0.00 | 0.00 | 79 | 974.9 |
| 20260902062315 | 13 | 46 | 0.0 | 1.6 | 0.00 | 0.00 | 0.00 | 79 | 975.1 |
| 20260902061843 | 12 | 46 | 0.0 | 1.6 | 0.00 | 0.00 | 0.00 | 79 | 974.9 |
| 20260902061428 | 12 | 46 | 0.0 | 1.6 | 0.00 | 0.00 | 0.00 | 80 | 975.1 |
| 20260902060945 | 12 | 46 | 0.0 | 1.6 | 0.00 | 0.00 | 0.00 | 88 | 975.0 |
| 20260902060548 | 12 | 46 | 1.6 | 1.6 | 0.00 | 0.00 | 0.00 | 88 | 975.0 |
| 20260902060118 | 12 | 14 | 1.6 | 0.0 | 0.00 | 0.00 | 0.00 | 88 | 974.8 |
| 20260902055653 | 11 | 331 | 1.6 | 0.0 | 0.00 | 0.00 | 0.00 | 88 | 975.1 |
| 20260902055213 | 11 | 331 | 1.6 | 0.0 | 0.00 | 0.00 | 0.00 | 88 | 975.0 |
| 20260902054728 | 11 | 331 | 0.0 | 1.6 | 0.00 | 0.00 | 0.00 | 88 | 975.2 |
| 20260902054308 | 11 | 331 | 0.0 | 1.6 | 0.00 | 0.00 | 0.00 | 88 | 975.0 |
| 20260902053858 | 11 | 331 | 0.0 | 1.6 | 0.00 | 0.00 | 0.00 | 88 | 975.1 |
| 20260902053443 | 11 | 331 | 0.0 | 1.6 | 0.00 | 0.00 | 0.00 | 88 | 975.0 |
| 20260902053013 | 11 | 331 | 0.0 | 1.6 | 0.00 | 0.00 | 0.00 | 88 | 974.7 |
| 20260902052548 | 11 | 331 | 0.0 | 1.6 | 0.00 | 0.00 | 0.00 | 88 | 975.0 |
| 20260902052133 | 11 | 331 | 0.0 | 0.0 | 0.00 | 0.00 | 0.00 | 88 | 974.8 |
| 20260902051708 | 11 | 331 | 0.0 | 0.0 | 0.00 | 0.00 | 0.00 | 88 | 974.9 |
| 20260902051253 | 11 | 331 | 0.0 | 0.0 | 0.00 | 0.00 | 0.00 | 88 | 975.0 |
| 20260902050848 | 10 | 332 | 0.0 | 0.0 | 0.00 | 0.00 | 0.00 | 88 | 974.9 |
| 20260902050403 | 10 | 332 | 0.0 | 0.0 | 0.00 | 0.00 | 0.00 | 91 | 974.9 |
| 20260902045943 | 10 | 332 | 0.0 | 1.6 | 0.00 | 0.00 | 0.00 | 91 | 975.0 |
| 20260902045523 | 10 | 332 | 1.6 | 1.6 | 0.00 | 0.00 | 0.00 | 91 | 975.0 |
| 20260902045048 | 10 | 332 | 1.6 | 1.6 | 0.00 | 0.00 | 0.00 | 91 | 974.8 |
| 20260902044633 | 10 | 332 | 1.6 | 1.6 | 0.00 | 0.00 | 0.00 | 91 | 974.9 |
| 20260902044203 | 10 | 332 | 0.0 | 1.6 | 0.00 | 0.00 | 0.00 | 91 | 975.0 |
| 20260902043753 | 10 | 332 | 0.0 | 1.6 | 0.00 | 0.00 | 0.00 | 91 | 974.7 |
| 20260902043255 | 10 | 332 | 0.0 | 1.6 | 0.00 | 0.00 | 0.00 | 92 | 974.9 |
| 20260902042818 | 10 | 332 | 0.0 | 1.6 | 0.00 | 0.00 | 0.00 | 92 | 974.8 |
| 20260902042343 | 10 | 332 | 0.0 | 1.6 | 0.00 | 0.00 | 0.00 | 92 | 974.9 |
| 20260902041933 | 10 | 332 | 0.0 | 1.6 | 0.00 | 0.00 | 0.00 | 92 | 974.7 |
| 20260902041503 | 10 | 332 | 0.0 | 1.6 | 0.00 | 0.00 | 0.00 | 94 | 974.7 |
| 20260902041033 | 10 | 332 | 0.0 | 1.6 | 0.00 | 0.00 | 0.00 | 94 | 974.7 |
| 20260902040558 | 10 | 332 | 0.0 | 0.0 | 0.00 | 0.00 | 0.00 | 94 | 974.7 |
| 20260902040148 | 10 | 332 | 0.0 | 0.0 | 0.00 | 0.00 | 0.00 | 95 | 975.0 |
| 20260902035703 | 10 | 332 | 0.0 | 0.0 | 0.00 | 0.00 | 0.00 | 95 | 974.9 |
| 20260902035228 | 10 | 332 | 0.0 | 0.0 | 0.00 | 0.00 | 0.00 | 95 | 974.7 |
| 20260902034758 | 10 | 332 | 0.0 | 0.0 | 0.00 | 0.00 | 0.00 | 95 | 974.9 |
| 20260902034258 | 10 | 332 | 0.0 | 1.6 | 0.00 | 0.00 | 0.00 | 95 | 974.9 |
| 20260902033823 | 10 | 332 | 1.6 | 1.6 | 0.00 | 0.00 | 0.00 | 95 | 974.8 |
| 20260902033328 | 10 | 332 | 1.6 | 1.6 | 0.00 | 0.00 | 0.00 | 95 | 974.8 |
| 20260902032833 | 10 | 332 | 0.0 | 0.0 | 0.00 | 0.00 | 0.00 | 94 | 974.9 |
| 20260902032403 | 10 | 332 | 0.0 | 0.0 | 0.00 | 0.00 | 0.00 | 94 | 974.7 |
| 20260902031953 | 10 | 332 | 0.0 | 0.0 | 0.00 | 0.00 | 0.00 | 94 | 974.7 |
| 20260902031505 | 10 | 332 | 0.0 | 0.0 | 0.00 | 0.00 | 0.00 | 94 | 974.8 |
| 20260902031053 | 10 | 332 | 0.0 | 1.6 | 0.00 | 0.00 | 0.00 | 94 | 974.8 |
| 20260902030555 | 10 | 332 | 1.6 | 1.6 | 0.00 | 0.00 | 0.00 | 94 | 974.9 |
| 20260902030128 | 10 | 332 | 3.2 | 1.6 | 0.00 | 0.00 | 0.00 | 93 | 974.7 |
| 20260902025653 | 10 | 332 | 0.0 | 1.6 | 0.00 | 0.00 | 0.00 | 93 | 974.8 |
| 20260902025243 | 10 | 332 | 0.0 | 1.6 | 0.00 | 0.00 | 0.00 | 93 | 974.6 |
| 20260902024828 | 10 | 332 | 0.0 | 1.6 | 0.00 | 0.00 | 0.00 | 93 | 974.8 |
| 20260902024413 | 10 | 332 | 0.0 | 1.6 | 0.00 | 0.00 | 0.00 | 93 | 974.9 |
| 20260902023923 | 10 | 332 | 0.0 | 1.6 | 0.00 | 0.00 | 0.00 | 93 | 975.0 |
| 20260902023435 | 10 | 332 | 0.0 | 1.6 | 0.00 | 0.00 | 0.00 | 93 | 974.9 |
| 20260902022947 | 10 | 330 | 1.6 | 0.0 | 0.00 | 0.00 | 0.00 | 93 | 975.0 |
| 20260902022523 | 10 | 330 | 3.2 | 1.6 | 0.00 | 0.00 | 0.00 | 93 | 974.9 |
| 20260902022043 | 10 | 330 | 1.6 | 1.6 | 0.00 | 0.00 | 0.00 | 93 | 974.7 |
| 20260902021613 | 10 | 330 | 1.6 | 1.6 | 0.00 | 0.00 | 0.00 | 93 | 974.9 |
| 20260902021128 | 10 | 330 | 1.6 | 1.6 | 0.00 | 0.00 | 0.00 | 93 | 974.9 |
| 20260902020653 | 10 | 330 | 1.6 | 1.6 | 0.00 | 0.00 | 0.00 | 93 | 974.9 |
| 20260902020243 | 10 | 330 | 0.0 | 0.0 | 0.00 | 0.00 | 0.00 | 90 | 974.7 |
| 20260902015805 | 10 | 330 | 0.0 | 0.0 | 0.00 | 0.00 | 0.00 | 90 | 974.9 |
| 20260902015403 | 10 | 330 | 0.0 | 0.0 | 0.00 | 0.00 | 0.00 | 90 | 975.0 |
| 20260902014923 | 10 | 330 | 0.0 | 0.0 | 0.00 | 0.00 | 0.00 | 90 | 974.9 |
| 20260902014453 | 11 | 330 | 1.6 | 0.0 | 0.00 | 0.00 | 0.00 | 90 | 975.0 |
| 20260902014015 | 11 | 330 | 0.0 | 0.0 | 0.00 | 0.00 | 0.00 | 90 | 975.1 |
| 20260902013608 | 11 | 330 | 0.0 | 0.0 | 0.00 | 0.00 | 0.00 | 90 | 975.0 |
| 20260902013138 | 11 | 330 | 0.0 | 1.6 | 0.00 | 0.00 | 0.00 | 90 | 975.1 |
| 20260902012713 | 11 | 330 | 0.0 | 1.6 | 0.00 | 0.00 | 0.00 | 90 | 975.0 |
| 20260902012308 | 11 | 330 | 1.6 | 0.0 | 0.00 | 0.00 | 0.00 | 90 | 975.2 |
| 20260902011818 | 11 | 330 | 1.6 | 0.0 | 0.00 | 0.00 | 0.00 | 90 | 975.0 |
| 20260902011343 | 11 | 330 | 1.6 | 0.0 | 0.00 | 0.00 | 0.00 | 90 | 975.2 |
| 20260902010923 | 11 | 330 | 1.6 | 0.0 | 0.00 | 0.00 | 0.00 | 90 | 975.1 |
| 20260902010505 | 11 | 330 | 1.6 | 0.0 | 0.00 | 0.00 | 0.00 | 89 | 975.1 |
| 20260902010055 | 11 | 330 | 1.6 | 0.0 | 0.00 | 0.00 | 0.00 | 90 | 975.2 |
| 20260902005628 | 11 | 330 | 1.6 | 0.0 | 0.00 | 0.00 | 0.00 | 90 | 975.2 |
| 20260902005223 | 11 | 330 | 1.6 | 0.0 | 0.00 | 0.00 | 0.00 | 90 | 975.1 |
| 20260902004808 | 11 | 330 | 1.6 | 0.0 | 0.00 | 0.00 | 0.00 | 89 | 975.3 |
| 20260902004343 | 11 | 330 | 1.6 | 0.0 | 0.00 | 0.00 | 0.00 | 89 | 975.0 |
| 20260902003918 | 11 | 330 | 1.6 | 0.0 | 0.00 | 0.00 | 0.00 | 89 | 975.1 |
| 20260902003423 | 11 | 330 | 1.6 | 0.0 | 0.00 | 0.00 | 0.00 | 89 | 975.2 |
| 20260902003003 | 11 | 330 | 1.6 | 0.0 | 0.00 | 0.00 | 0.00 | 87 | 975.1 |
| 20260902002523 | 11 | 330 | 1.6 | 1.6 | 0.00 | 0.00 | 0.00 | 87 | 975.2 |
| 20260902002053 | 11 | 330 | 1.6 | 0.0 | 0.00 | 0.00 | 0.00 | 87 | 975.3 |
| 20260902001608 | 11 | 331 | 0.0 | 1.6 | 0.00 | 0.00 | 0.00 | 87 | 975.0 |
| 20260902001138 | 11 | 331 | 0.0 | 1.6 | 0.00 | 0.00 | 0.00 | 87 | 975.3 |
| 20260902000728 | 11 | 331 | 0.0 | 0.0 | 0.00 | 0.00 | 0.00 | 87 | 975.2 |
| 20260902000234 | 11 | 331 | 0.0 | 0.0 | 0.00 | 0.00 | 0.00 | 87 | 975.2 |
| 20260901235808 | 11 | 331 | 1.6 | 0.0 | 0.00 | 0.00 | 0.00 | 87 | 975.4 |
| 20260901235335 | 12 | 331 | 1.6 | 0.0 | 0.00 | 0.00 | 0.00 | 87 | 975.2 |
| 20260901234908 | 12 | 331 | 3.2 | 0.0 | 0.00 | 0.00 | 0.00 | 87 | 975.1 |
| 20260901234408 | 12 | 331 | 1.6 | 0.0 | 0.00 | 0.00 | 0.00 | 87 | 975.1 |
| 20260901233953 | 12 | 331 | 0.0 | 0.0 | 0.00 | 0.00 | 0.00 | 87 | 974.9 |
| 20260901233538 | 12 | 331 | 0.0 | 0.0 | 0.00 | 0.00 | 0.00 | 87 | 975.0 |
| 20260901233118 | 12 | 331 | 0.0 | 0.0 | 0.00 | 0.00 | 0.00 | 87 | 974.9 |
| 20260901232633 | 12 | 331 | 1.6 | 0.0 | 0.00 | 0.00 | 0.00 | 87 | 975.1 |
| 20260901232218 | 12 | 331 | 0.0 | 0.0 | 0.00 | 0.00 | 0.00 | 87 | 975.1 |
| 20260901231758 | 12 | 331 | 1.6 | 1.6 | 0.00 | 0.00 | 0.00 | 87 | 975.0 |
| 20260901231343 | 12 | 330 | 0.0 | 1.6 | 0.00 | 0.00 | 0.00 | 87 | 975.1 |
| 20260901230935 | 12 | 330 | 0.0 | 0.0 | 0.00 | 0.00 | 0.00 | 87 | 975.1 |
| 20260901230453 | 12 | 330 | 1.6 | 1.6 | 0.00 | 0.00 | 0.00 | 87 | 975.2 |
| 20260901230013 | 12 | 318 | 1.6 | 1.6 | 0.00 | 0.00 | 0.00 | 87 | 975.1 |
| 20260901225533 | 12 | 318 | 3.2 | 1.6 | 0.00 | 0.00 | 0.00 | 87 | 975.2 |
| 20260901225058 | 12 | 318 | 1.6 | 1.6 | 0.00 | 0.00 | 0.00 | 87 | 975.2 |
| 20260901224633 | 12 | 318 | 0.0 | 1.6 | 0.00 | 0.00 | 0.00 | 87 | 975.2 |
| 20260901224148 | 12 | 318 | 0.0 | 0.0 | 0.00 | 0.00 | 0.00 | 87 | 975.2 |
| 20260901223733 | 12 | 318 | 0.0 | 0.0 | 0.00 | 0.00 | 0.00 | 87 | 975.1 |
| 20260901223303 | 12 | 318 | 0.0 | 0.0 | 0.00 | 0.00 | 0.00 | 87 | 975.0 |
| 20260901222833 | 12 | 318 | 0.0 | 0.0 | 0.00 | 0.00 | 0.00 | 87 | 975.1 |
| 20260901222338 | 15 | 318 | 0.0 | 0.0 | 0.00 | 0.00 | 0.00 | 87 | 975.1 |
| 20260901221858 | 15 | 318 | 0.0 | 0.0 | 0.00 | 0.00 | 0.00 | 87 | 975.0 |
| 20260901221438 | 15 | 318 | 0.0 | 0.0 | 0.00 | 0.00 | 0.00 | 87 | 975.0 |
| 20260901220948 | 15 | 318 | 0.0 | 0.0 | 0.00 | 0.00 | 0.00 | 86 | 975.1 |
| 20260901220508 | 15 | 318 | 0.0 | 0.0 | 0.00 | 0.00 | 0.00 | 86 | 975.0 |
| 20260901220038 | 15 | 318 | 0.0 | 0.0 | 0.00 | 0.00 | 0.00 | 85 | 975.1 |
| 20260901215603 | 15 | 318 | 0.0 | 0.0 | 0.00 | 0.00 | 0.00 | 80 | 974.9 |
| 20260901215133 | 15 | 318 | 0.0 | 0.0 | 0.00 | 0.00 | 0.00 | 80 | 975.3 |
| 20260901214718 | 15 | 318 | 0.0 | 0.0 | 0.00 | 0.00 | 0.00 | 80 | 975.0 |
| 20260901214238 | 15 | 318 | 1.6 | 1.6 | 0.00 | 0.00 | 0.00 | 80 | 974.9 |
| 20260901213758 | 15 | 164 | 0.0 | 1.6 | 0.00 | 0.00 | 0.00 | 80 | 975.0 |
| 20260901213308 | 15 | 164 | 0.0 | 0.0 | 0.00 | 0.00 | 0.00 | 80 | 974.9 |
| 20260901212843 | 15 | 164 | 0.0 | 0.0 | 0.00 | 0.00 | 0.00 | 80 | 975.0 |
| 20260901212413 | 15 | 164 | 1.6 | 1.6 | 0.00 | 0.00 | 0.00 | 80 | 975.0 |
| 20260901211948 | 15 | 164 | 0.0 | 1.6 | 0.00 | 0.00 | 0.00 | 80 | 974.9 |
| 20260901211518 | 15 | 164 | 0.0 | 1.6 | 0.00 | 0.00 | 0.00 | 80 | 974.9 |
| 20260901211048 | 15 | 164 | 0.0 | 1.6 | 0.00 | 0.00 | 0.00 | 80 | 975.0 |
| 20260901210623 | 15 | 164 | 1.6 | 1.6 | 0.00 | 0.00 | 0.00 | 80 | 974.8 |
| 20260901210213 | 15 | 164 | 1.6 | 4.8 | 0.00 | 0.00 | 0.00 | 80 | 974.6 |
| 20260901205733 | 15 | 164 | 0.0 | 4.8 | 0.00 | 0.00 | 0.00 | 80 | 974.7 |
| 20260901205306 | 15 | 168 | 0.0 | 0.0 | 0.00 | 0.00 | 0.00 | 80 | 974.9 |
| 20260901204848 | 15 | 168 | 0.0 | 0.0 | 0.00 | 0.00 | 0.00 | 80 | 975.0 |
| 20260901204418 | 15 | 168 | 0.0 | 0.0 | 0.00 | 0.00 | 0.00 | 80 | 974.7 |
| 20260901203935 | 15 | 168 | 0.0 | 0.0 | 0.00 | 0.00 | 0.00 | 80 | 974.9 |
| 20260901203508 | 15 | 168 | 0.0 | 0.0 | 0.00 | 0.00 | 0.00 | 80 | 974.8 |
| 20260901203033 | 15 | 168 | 1.6 | 1.6 | 0.00 | 0.00 | 0.00 | 80 | 974.8 |
| 20260901202618 | 15 | 168 | 0.0 | 1.6 | 0.00 | 0.00 | 0.00 | 80 | 974.9 |
| 20260901202135 | 15 | 168 | 0.0 | 1.6 | 0.00 | 0.00 | 0.00 | 73 | 974.5 |
| 20260901201653 | 15 | 220 | 0.0 | 1.6 | 0.00 | 0.00 | 0.00 | 73 | 974.7 |
| 20260901201223 | 15 | 220 | 0.0 | 0.0 | 0.00 | 0.00 | 0.00 | 73 | 974.7 |
| 20260901200803 | 15 | 220 | 0.0 | 1.6 | 0.00 | 0.00 | 0.00 | 73 | 974.7 |
| 20260901200338 | 15 | 220 | 0.0 | 1.6 | 0.00 | 0.00 | 0.00 | 73 | 974.7 |
| 20260901195928 | 16 | 220 | 0.0 | 1.6 | 0.00 | 0.00 | 0.00 | 73 | 974.7 |
| 20260901195458 | 16 | 220 | 1.6 | 1.6 | 0.00 | 0.00 | 0.00 | 73 | 974.5 |
| 20260901195043 | 16 | 220 | 1.6 | 1.6 | 0.00 | 0.00 | 0.00 | 73 | 974.8 |
| 20260901194608 | 16 | 220 | 1.6 | 1.6 | 0.00 | 0.00 | 0.00 | 73 | 974.6 |
| 20260901194125 | 16 | 235 | 1.6 | 1.6 | 0.00 | 0.00 | 0.00 | 73 | 974.5 |
| 20260901193708 | 16 | 235 | 0.0 | 1.6 | 0.00 | 0.00 | 0.00 | 73 | 974.7 |
| 20260901193223 | 16 | 235 | 0.0 | 1.6 | 0.00 | 0.00 | 0.00 | 73 | 974.7 |
| 20260901192758 | 16 | 235 | 3.2 | 1.6 | 0.00 | 0.00 | 0.00 | 73 | 974.6 |
| 20260901192318 | 16 | 174 | 0.0 | 0.0 | 0.00 | 0.00 | 0.00 | 62 | 974.6 |
| 20260901191855 | 16 | 174 | 0.0 | 0.0 | 0.00 | 0.00 | 0.00 | 62 | 974.5 |
| 20260901191453 | 16 | 174 | 0.0 | 0.0 | 0.00 | 0.00 | 0.00 | 62 | 974.4 |
| 20260901191038 | 16 | 174 | 0.0 | 1.6 | 0.00 | 0.00 | 0.00 | 62 | 974.6 |
| 20260901190613 | 17 | 174 | 0.0 | 1.6 | 0.00 | 0.00 | 0.00 | 62 | 974.5 |
| 20260901190133 | 17 | 174 | 0.0 | 1.6 | 0.00 | 0.00 | 0.00 | 62 | 974.4 |
| 20260901185658 | 17 | 174 | 0.0 | 0.0 | 0.00 | 0.00 | 0.00 | 62 | 974.4 |
| 20260901185238 | 17 | 174 | 0.0 | 0.0 | 0.00 | 0.00 | 0.00 | 62 | 974.3 |
| 20260901184815 | 17 | 174 | 0.0 | 0.0 | 0.00 | 0.00 | 0.00 | 62 | 974.2 |
| 20260901184403 | 17 | 174 | 0.0 | 0.0 | 0.00 | 0.00 | 0.00 | 62 | 974.4 |
| 20260901183943 | 17 | 174 | 1.6 | 0.0 | 0.00 | 0.00 | 0.00 | 62 | 974.3 |
| 20260901183458 | 17 | 174 | 3.2 | 0.0 | 0.00 | 0.00 | 0.00 | 62 | 974.4 |
| 20260901183003 | 18 | 174 | 0.0 | 0.0 | 0.00 | 0.00 | 0.00 | 62 | 974.1 |
| 20260901182523 | 18 | 174 | 1.6 | 0.0 | 0.00 | 0.00 | 0.00 | 62 | 974.0 |
| 20260901182113 | 18 | 174 | 1.6 | 0.0 | 0.00 | 0.00 | 0.00 | 62 | 974.3 |
| 20260901181708 | 20 | 174 | 1.6 | 0.0 | 0.00 | 0.00 | 0.00 | 62 | 974.0 |
| 20260901181235 | 20 | 174 | 1.6 | 1.6 | 0.00 | 0.00 | 0.00 | 62 | 974.3 |
| 20260901180808 | 20 | 174 | 1.6 | 1.6 | 0.00 | 0.00 | 0.00 | 59 | 974.0 |
| 20260901180343 | 20 | 174 | 1.6 | 1.6 | 0.00 | 0.00 | 0.00 | 59 | 974.1 |
| 20260901175923 | 20 | 175 | 1.6 | 1.6 | 0.00 | 0.00 | 0.00 | 49 | 973.8 |
| 20260901175455 | 20 | 175 | 1.6 | 0.0 | 0.00 | 0.00 | 0.00 | 49 | 973.9 |
| 20260901175028 | 20 | 307 | 3.2 | 1.6 | 0.00 | 0.00 | 0.00 | 49 | 973.7 |
| 20260901174559 | 20 | 307 | 3.2 | 1.6 | 0.00 | 0.00 | 0.00 | 49 | 973.7 |
| 20260901174115 | 20 | 303 | 3.2 | 1.6 | 0.00 | 0.00 | 0.00 | 49 | 973.8 |
| 20260901173648 | 20 | 303 | 3.2 | 4.8 | 0.00 | 0.00 | 0.00 | 49 | 973.8 |
| 20260901173223 | 20 | 303 | 0.0 | 4.8 | 0.00 | 0.00 | 0.00 | 49 | 973.9 |
| 20260901172808 | 20 | 135 | 0.0 | 4.8 | 0.00 | 0.00 | 0.00 | 49 | 973.7 |
| 20260901172343 | 21 | 135 | 1.6 | 8.0 | 0.00 | 0.00 | 0.00 | 49 | 973.8 |
| 20260901171913 | 21 | 101 | 1.6 | 8.0 | 0.00 | 0.00 | 0.00 | 49 | 973.9 |
| 20260901171448 | 21 | 101 | 1.6 | 4.8 | 0.00 | 0.00 | 0.00 | 49 | 973.7 |
| 20260901171013 | 21 | 79 | 1.6 | 1.6 | 0.00 | 0.00 | 0.00 | 49 | 973.8 |
| 20260901170543 | 21 | 79 | 4.8 | 1.6 | 0.00 | 0.00 | 0.00 | 49 | 973.8 |
| 20260901170059 | 21 | 144 | 4.8 | 4.8 | 0.00 | 0.00 | 0.00 | 47 | 973.7 |
| 20260901165618 | 21 | 181 | 4.8 | 11.3 | 0.00 | 0.00 | 0.00 | 47 | 973.8 |
| 20260901165128 | 21 | 181 | 0.0 | 11.3 | 0.00 | 0.00 | 0.00 | 47 | 973.7 |
| 20260901164658 | 21 | 286 | 3.2 | 11.3 | 0.00 | 0.00 | 0.00 | 47 | 973.7 |
| 20260901164228 | 21 | 286 | 4.8 | 14.5 | 0.00 | 0.00 | 0.00 | 47 | 973.9 |
| 20260901163803 | 21 | 171 | 1.6 | 14.5 | 0.00 | 0.00 | 0.00 | 47 | 974.1 |
| 20260901163358 | 21 | 171 | 6.4 | 14.5 | 0.00 | 0.00 | 0.00 | 47 | 974.0 |
| 20260901162923 | 21 | 124 | 6.4 | 8.0 | 0.00 | 0.00 | 0.00 | 47 | 974.0 |
| 20260901162503 | 21 | 124 | 3.2 | 4.8 | 0.00 | 0.00 | 0.00 | 47 | 974.2 |